カタログに戻る

CZ-6A DEB

運用中SSO
NORAD 55557·DEBRIS·🇨🇳 China

打ち上げ Nov 11, 2022 から Taiyuan Satellite Launch Center

Loading…

次のパス (今後24時間)

TLE

最新Source: Space-Track

元期: Sep 14, 2026, 05:57 UTC

1 55557U 22151ZF  26257.24797577  .00000428  00000-0  22948-3 0  9990
2 55557  98.7624 250.7759 0064715  92.4114 268.4472 14.17026473197515

AllMySatでCZ-6A DEBをリアルタイム追跡

Download on the App Store